Location: Starry Hill Observatory
(46.8582°N, 122.3590°W)
Time: 07:36:54
(UTC-07:00)

ISS - Visible Passes

Search period start: 24 July 2014 00:00
Search period end: 03 August 2014 00:00
Orbit: 411 x 419 km, 51.6° (Epoch: 24 July)

Date Brightness Start Highest point End Pass type
(mag) Time Alt. Az. Time Alt. Az. Time Alt. Az.
24 Jul -3.4 03:07:14 69° WSW 03:07:35 87° SSE 03:10:58 10° ENE visible
24 Jul -1.9 04:41:24 10° WNW 04:44:34 37° N 04:47:44 10° ENE visible
25 Jul -1.9 02:20:06 33° E 02:20:06 33° E 02:22:10 10° ENE visible
25 Jul -2.1 03:52:58 13° W 03:55:41 42° NNW 03:58:55 10° ENE visible
26 Jul -0.5 01:33:00 12° ENE 01:33:00 12° ENE 01:33:19 10° ENE visible
26 Jul -2.6 03:05:52 36° WNW 03:06:52 52° NNW 03:10:10 10° ENE visible
26 Jul -1.6 04:40:53 10° WNW 04:44:01 35° N 04:47:09 10° ENE visible
27 Jul -2.5 02:18:47 52° NE 02:18:47 52° NE 02:21:29 10° ENE visible
27 Jul -1.7 03:52:03 10° WNW 03:55:11 35° N 03:58:20 10° ENE visible
28 Jul -1.0 01:31:43 19° ENE 01:31:43 19° ENE 01:32:49 10° ENE visible
28 Jul -1.8 03:04:35 21° WNW 03:06:24 37° N 03:09:35 10° ENE visible
28 Jul -1.9 04:40:22 10° WNW 04:43:36 41° NNE 04:46:50 10° E visible
29 Jul -2.2 02:17:34 43° NNW 02:17:39 43° NNW 02:20:54 10° ENE visible
29 Jul -1.7 03:51:41 10° WNW 03:54:51 36° N 03:58:01 10° ENE visible
30 Jul -1.3 01:30:36 26° NE 01:30:36 26° NE 01:32:18 10° ENE visible
30 Jul -1.6 03:03:28 13° WNW 03:06:08 34° N 03:09:16 10° ENE visible
30 Jul -2.8 04:39:52 10° WNW 04:43:14 65° NNE 04:46:35 10° ESE visible
31 Jul -0.3 00:43:43 10° ENE 00:43:43 10° ENE 00:43:44 10° ENE visible
31 Jul -1.7 02:16:35 30° NW 02:17:26 35° N 02:20:35 10° ENE visible
31 Jul -2.3 03:51:19 10° WNW 03:54:37 49° NNE 03:57:54 10° E visible
01 Aug -1.4 01:29:52 29° NE 01:29:52 29° NE 01:31:58 10° ENE visible
01 Aug -1.9 03:02:46 10° WNW 03:06:00 40° NNE 03:09:13 10° E visible
01 Aug -3.3 04:39:32 10° WNW 04:42:53 64° SSW 04:46:13 10° SE visible
02 Aug -1.7 02:16:26 29° NNW 02:17:23 36° N 02:20:32 10° ENE visible
02 Aug -3.3 03:51:01 10° WNW 03:54:24 86° NNE 03:57:47 10° ESE visible
02 Aug -2.6 22:12:00 10° SSW 22:15:00 31° SE 22:16:19 23° E visible
02 Aug -1.1 23:48:20 10° W 23:49:29 20° W 23:49:29 20° W visible
